User: anonymous   Login
Location: Nebula Knoll Observatory
(43.6666°N, 71.0000°W)
Time: 15:53:15
(UTC-05:00)
Language:

Cosmos 1782 - Orbit

View from above orbital plane
View from above orbital plane
View from above satellite
View from above satellite

Ground track
Ground track

The orbit data is extracted from the following two-line orbital elements,

1 16986U 86074A   15060.18839630  .00003976  00000-0  28220-3 0  9997
2 16986 082.5071 216.4675 0011159 328.6942 031.3618 15.04443960544592
Epoch (UTC): 01 March 2015 04:31:17
Eccentricity: 0.0011159
inclination: 82.5071°
perigee height: 545 km
apogee height: 561 km
right ascension of ascending node: 216.4675°
argument of perigee: 328.6942°
revolutions per day: 15.04443960
mean anomaly at epoch: 31.3618°
orbit number at epoch: 54459

The dashed part of the orbit path shows where the satellite is in the earth's shadow,  

DLR